Home   Weather   Yavatmal   Past weeks

Flag for India Past Weather in Yavatmal, Maharashtra, India — Yesterday and Last 2 Weeks

72 °F


Feels Like: 75 °F
Forecast: 67 / 87 °F
Wind: No wind

Location: Nagpur Sonegaon

Current Time: Oct 22, 2016 at 1:50:03 AM

Latest Report: Oct 22, 2016 at 12:30 AM

Visibility: 1 mi

Pressure: 29.86 "Hg

Humidity: 69%

Dew Point: 61 °F

Location of YavatmalLocation

Past Weather in Yavatmal — Graph


Yavatmal Temperature Yesterday

Maximum temperature yesterday: 91 °F (at 3:00 PM)
Minimum temperature yesterday: 61 °F (at 5:30 AM)
Average temperature yesterday: 75 °F

High & Low Weather Summary for the Past Weeks

High95 °F (Oct 10, 1:30 PM)100% (Oct 8, 8:00 PM)29.98 "Hg (Oct 8, 8:00 PM)
Low61 °F (Oct 13, 4:30 AM)28% (Oct 19, 2:30 PM)29.68 "Hg (Oct 8, 3:30 PM)
Average78 °F73%29.84 "Hg
* Reported Oct 6 11:30 PM — Oct 22 12:00 AM, Yavatmal, Weather by CustomWeather, © 2016

Note: Actual official high and low records may vary slightly from our data, if they occured in-between our weather recording intervals... More about our weather records


Yavatmal Weather History for the Previous 24 Hours

Scroll right to see more
Time TempWeatherWind HumidityBarometerVisibility
12:00 AM
Sat, Oct 22
73 °FHaze.No wind65%29.86 "Hg1 mi
10:30 PM
Fri, Oct 21
75 °FHaze.No wind65%29.86 "Hg1 mi
9:30 PM73 °FHaze.No wind69%29.89 "Hg1 mi
9:00 PM73 °FHaze.No wind69%29.89 "Hg1 mi
8:30 PM75 °FHaze.No wind65%29.86 "Hg1 mi
8:00 PM75 °FHaze.No wind65%29.86 "Hg1 mi
7:30 PM79 °FHaze.No wind58%29.86 "Hg1 mi
7:00 PM79 °FHaze.No wind58%29.86 "Hg1 mi
6:30 PM79 °FHaze.No wind58%29.83 "Hg2 mi
6:00 PM82 °FHaze.No wind45%29.83 "Hg2 mi
5:30 PM84 °FHaze.No wind43%29.80 "Hg2 mi
5:00 PM88 °FHaze.3 mph38%29.80 "Hg2 mi
4:30 PM88 °FHaze.5 mph40%29.77 "Hg2 mi
4:00 PM90 °FHaze.3 mph38%29.77 "Hg3 mi
3:00 PM91 °FHaze.No wind36%29.77 "Hg3 mi
2:30 PM90 °FHaze.5 mph41%29.80 "Hg3 mi
2:00 PM90 °FHaze.No wind41%29.80 "Hg3 mi
1:30 PM90 °FHaze.No wind41%29.83 "Hg3 mi
12:00 PM88 °FHaze.5 mph40%29.89 "Hg2 mi
11:30 AM88 °FHaze.3 mph40%29.89 "Hg2 mi
10:30 AM84 °FHaze.3 mph43%29.92 "Hg2 mi
10:00 AM82 °FHaze.No wind45%29.92 "Hg2 mi
9:30 AM79 °FHaze.3 mph54%29.92 "Hg1 mi
9:00 AM75 °FHaze.3 mph61%29.92 "Hg1 mi
8:30 AM70 °FHaze.No wind69%29.89 "Hg1 mi
8:00 AM66 °FHaze.No wind78%29.89 "Hg1 mi
7:30 AM63 °FHaze.No wind88%29.89 "Hg1 mi
7:00 AM61 °FScattered clouds.No wind94%29.86 "Hg1 mi
6:30 AM61 °FHaze.No wind94%29.86 "Hg1 mi
6:00 AM61 °FHaze.No wind94%29.83 "Hg1 mi
5:30 AM61 °FHaze.No wind94%29.83 "Hg2 mi
5:00 AM63 °FHaze.No wind94%29.80 "Hg2 mi
4:30 AM63 °FHaze.No wind94%29.80 "Hg2 mi
3:30 AM64 °FHaze.No wind88%29.77 "Hg2 mi
3:00 AM64 °FHaze.No wind94%29.77 "Hg2 mi
2:30 AM64 °FMild.N/A94%29.77 "HgN/A
2:00 AM64 °FHaze.No wind94%29.80 "Hg2 mi
1:30 AM64 °FHaze.No wind94%29.80 "Hg2 mi
1:00 AM64 °FHaze.No wind94%29.80 "Hg2 mi
Weather by CustomWeather, © 2016

See weather overviewHow to use our weather pages